Pagina principale
METAR-TAF:

METAR-TAF

Aeroporti :

Alpnach, Svizzera

latitudine: 46-56-19N, longitudine: 8-17-03E, altezza: 440 m

Osservazione

Il bollettino è stato emesso 26 minuti fa, alle 17:20 UTC
Vento calmo
Temperature 23°C
Umidità 73%
Pressione 1014 hPa
Visibilità 10 km o più
Nuvoloso ad un'altezza di 12000 ft

METAR: LSMA 171720Z AUTO 00000KT 9999NDV BKN120 23/18 Q1014 RMK

Ora: 19:46 (17:46 UTC)


TAF: mancante

Osservazioni e previsioni meteorologiche di più di 4000 aeroporti (messaggi METAR e TAF).

Le stazioni disponibili sono rappresentate dai dischi gialli e rossi sulla carta.

Puntare il mouse per vedere il nome della stazione.

Clicca sopra per visualizzare le osservazioni e previsioni meteorologiche.

Per cambiare la mappa : fare clic sui pulsanti verdi con una croce nera per ingrandire, il pulsante verde con un trattino per diminuire, o sulla freccia verde per le mappe adiacenti.


METAR-TAF: